Location: �clusier
(49.9361°N, 2.7869°E)
Time: 06:17:16
(UTC+00:00)

SAR-Lupe-2 - Pass Details

Date: 16 June 2021
Orbit: 482 x 484 km, 98.1° (Epoch: 20 July)

Event Time Altitude Azimuth Distance (km) Brightness Sun altitude
Rises 23:08:16 0° 20° (NNE) 2,563 8.3 -16.1°
Reaches altitude 10° 23:10:27 10° 29° (NNE) 1,677 7.1 -16.2°
Maximum altitude 23:13:50 38° 99° (E) 751 4.3 -16.3°
Enters shadow 23:14:50 31° 137° (SE) 870 4.4 -16.3°
